Date String (YYYY-MM-DD hh:mm:ss) UTC,Instrument flags,absolute air pressure of the measurement (hPa),sample flow rate (lpm),inlet stack bypass flow (lpm),air temperature of the measurement (°C),ambient temperature measured by the external sensor (°C),aerosol sample conditioner tube jacket temperature (°C),OPC LED temperature (°C),internal box temperature (°C),relative humidity of the measurement (%),span deviation,mass concentration of particles derived from Lorenz-Mie calculation of OPC scattering (μg/m³),mass concentration of particles derived from Lorenz-Mie calculation of OPC scattering (μg/m³),mass concentration of particles derived from Lorenz-Mie calculation of OPC scattering (μg/m³)
DateTimeUTC,F1_M11,P_M11,Q1_M11,Q2_M11,T1_M11,T2_M11,T3_M11,T4_M11,T5_M11,U1_M11,ZSPAN_M11,X0_M11,X2_M11,X1_M11
2023-11-23 12:00:00,SystemResetWarning,0830.5,5.00,000.00,024.2,023.3,000.0,032.5,025.5,10.7,0000.0,0007.89,0003.12,0001.71
2023-11-23 12:01:00,SystemResetWarning,0830.6,5.01,000.00,024.2,023.3,000.0,032.5,025.5,10.7,0000.0,0008.03,0003.16,0001.73
2023-11-23 12:02:00,SystemResetWarning,0830.5,5.01,000.00,024.2,023.3,000.0,032.5,025.5,10.7,0000.0,0007.92,0003.14,0001.73
2023-11-23 12:03:00,SystemResetWarning,0830.6,4.99,000.00,024.2,023.3,000.0,032.5,025.5,10.7,0000.0,0007.81,0003.15,0001.76
2023-11-23 12:04:00,SystemResetWarning,0830.6,4.99,000.00,024.2,023.3,000.0,032.5,025.5,10.7,0000.0,0007.89,0003.19,0001.79
2023-11-23 12:05:00,SystemResetWarning,0830.7,4.99,000.00,024.2,023.3,000.0,032.5,025.5,10.7,0000.0,0008.15,0003.24,0001.82
2023-11-23 12:06:00,SystemResetWarning,0830.5,5.00,000.00,024.2,023.2,000.0,032.5,025.4,10.7,0000.0,0008.63,0003.21,0001.85
2023-11-23 12:07:00,SystemResetWarning,0830.5,5.00,000.00,024.2,023.2,000.0,032.5,025.4,10.7,0000.0,0009.55,0003.21,0001.87
2023-11-23 12:08:00,SystemResetWarning,0830.5,5.00,000.00,024.2,023.2,000.0,032.5,025.5,10.7,0000.0,0009.83,0003.24,0001.88
2023-11-23 12:09:00,SystemResetWarning,0830.5,5.00,000.00,024.2,023.2,000.0,032.5,025.4,10.7,0000.0,0010.04,0003.28,0001.90
2023-11-23 12:10:00,SystemResetWarning,0830.6,5.00,000.00,024.2,023.2,000.0,032.5,025.4,10.8,0000.0,0010.63,0003.28,0001.92
2023-11-23 12:11:00,SystemResetWarning,0830.6,5.00,000.00,024.2,023.2,000.0,032.5,025.4,10.8,0000.0,0010.44,0003.24,0001.91
2023-11-23 12:12:00,SystemResetWarning,0830.5,5.00,000.00,024.2,023.2,000.0,032.5,025.4,10.8,0000.0,0010.26,0003.19,0001.90
2023-11-23 12:13:00,SystemResetWarning,0830.5,5.00,000.00,024.2,023.2,000.0,032.5,025.4,10.7,0000.0,0010.17,0003.16,0001.90
2023-11-23 12:14:00,SystemResetWarning,0830.4,5.00,000.00,024.2,023.2,000.0,032.5,025.5,10.7,0000.0,0010.86,0003.14,0001.89
2023-11-23 12:15:00,SystemResetWarning,0830.5,5.00,000.00,024.2,023.2,000.0,032.5,025.4,10.7,0000.0,0011.23,0003.11,0001.89
2023-11-23 12:16:00,SystemResetWarning,0830.4,5.00,000.00,024.2,023.2,000.0,032.5,025.4,10.7,0000.0,0011.26,0003.11,0001.88
2023-11-23 12:17:00,SystemResetWarning,0830.6,5.00,000.00,024.2,023.2,000.0,032.5,025.4,10.7,0000.0,0011.01,0003.12,0001.87
2023-11-23 12:18:00,SystemResetWarning,0830.6,5.00,000.00,024.2,023.2,000.0,032.5,025.4,10.8,0000.0,0010.29,0003.17,0001.86
2023-11-23 12:19:00,SystemResetWarning,0830.6,5.00,000.00,024.2,023.2,000.0,032.5,025.4,10.8,0000.0,0010.17,0003.16,0001.86
2023-11-23 12:20:00,SystemResetWarning,0830.6,5.00,000.00,024.2,023.2,000.0,032.5,025.4,10.8,0000.0,0010.52,0003.16,0001.87
2023-11-23 12:21:00,SystemResetWarning,0830.7,5.01,000.00,024.2,023.2,000.0,032.5,025.4,10.8,0000.0,0010.32,0003.17,0001.85
2023-11-23 12:22:00,SystemResetWarning,0830.7,5.00,000.00,024.2,023.2,000.0,032.5,025.4,10.8,0000.0,0010.59,0003.19,0001.84
2023-11-23 12:23:00,SystemResetWarning,0830.7,5.00,000.00,024.2,023.2,000.0,032.5,025.4,10.9,0000.0,0010.67,0003.21,0001.84
2023-11-23 12:24:00,SystemResetWarning,0830.7,5.00,000.00,024.2,023.2,000.0,032.5,025.4,10.9,0000.0,0011.41,0003.28,0001.85
2023-11-23 12:25:00,SystemResetWarning,0830.7,5.00,000.00,024.1,023.2,000.0,032.5,025.4,10.9,0000.0,0010.83,0003.29,0001.85
2023-11-23 12:26:00,SystemResetWarning,0830.7,5.00,000.00,024.1,023.2,000.0,032.5,025.4,11.0,0000.0,0011.02,0003.29,0001.83
2023-11-23 12:27:00,SystemResetWarning,0830.7,5.00,000.00,024.1,023.2,000.0,032.5,025.4,11.0,0000.0,0011.13,0003.37,0001.84
2023-11-23 12:28:00,SystemResetWarning,0830.7,5.00,000.00,024.1,023.2,000.0,032.5,025.3,10.9,0000.0,0010.91,0003.35,0001.83
2023-11-23 12:29:00,SystemResetWarning,0830.8,5.00,000.00,024.1,023.1,000.0,032.4,025.3,10.9,0000.0,0011.46,0003.32,0001.83
2023-11-23 12:30:00,SystemResetWarning,0830.8,5.00,000.00,024.1,023.1,000.0,032.4,025.3,11.0,0000.0,0011.76,0003.34,0001.82
2023-11-23 12:31:00,SystemResetWarning,0830.8,5.00,000.00,024.1,023.1,000.0,032.4,025.3,11.1,0000.0,0011.44,0003.36,0001.81
2023-11-23 12:32:00,SystemResetWarning,0830.8,5.00,000.00,024.1,023.1,000.0,032.4,025.3,11.1,0000.0,0010.99,0003.33,0001.80
2023-11-23 12:33:00,SystemResetWarning,0830.8,5.00,000.00,024.1,023.1,000.0,032.4,025.3,11.2,0000.0,0010.61,0003.33,0001.79
2023-11-23 12:34:00,SystemResetWarning,0830.8,5.00,000.00,024.1,023.1,000.0,032.4,025.3,11.2,0000.0,0010.49,0003.31,0001.80
2023-11-23 12:35:00,SystemResetWarning,0830.8,5.00,000.00,024.1,023.1,000.0,032.4,025.3,11.3,0000.0,0009.95,0003.28,0001.80
2023-11-23 12:36:00,SystemResetWarning,0830.8,5.00,000.00,024.1,023.1,000.0,032.4,025.2,11.3,0000.0,0009.99,0003.27,0001.79
2023-11-23 12:37:00,SystemResetWarning,0830.8,5.00,000.00,024.1,023.1,000.0,032.4,025.2,11.4,0000.0,0010.55,0003.25,0001.79
2023-11-23 12:38:00,SystemResetWarning,0830.8,5.01,000.00,024.1,023.1,000.0,032.4,025.3,11.5,0000.0,0009.67,0003.14,0001.78
2023-11-23 12:39:00,SystemResetWarning,0830.8,5.00,000.00,024.1,023.1,000.0,032.4,025.3,11.4,0000.0,0009.70,0003.12,0001.77
2023-11-23 12:40:00,SystemResetWarning,0830.9,5.00,000.00,024.1,023.1,000.0,032.4,025.2,11.4,0000.0,0010.28,0003.18,0001.77
2023-11-23 12:41:00,SystemResetWarning,0830.9,5.00,000.00,024.1,023.1,000.0,032.4,025.2,11.4,0000.0,0010.15,0003.15,0001.77
2023-11-23 12:42:00,SystemResetWarning,0830.9,5.00,000.00,024.1,023.1,000.0,032.4,025.2,11.5,0000.0,0011.21,0003.12,0001.77
2023-11-23 12:43:00,SystemResetWarning,0830.9,5.00,000.00,024.1,023.1,000.0,032.4,025.2,11.6,0000.0,0012.06,0003.07,0001.76
2023-11-23 12:44:00,SystemResetWarning,0830.9,5.00,000.00,024.0,023.1,000.0,032.4,025.2,11.6,0000.0,0012.14,0003.05,0001.76
2023-11-23 12:45:00,SystemResetWarning,0830.9,5.00,000.00,024.0,023.1,000.0,032.4,025.2,11.5,0000.0,0012.37,0003.06,0001.75
2023-11-23 12:46:00,SystemResetWarning,0830.9,5.00,000.00,024.0,023.1,000.0,032.4,025.2,11.5,0000.0,0012.63,0002.98,0001.72
2023-11-23 12:47:00,SystemResetWarning,0830.9,5.00,000.00,024.0,023.1,000.0,032.4,025.3,11.5,0000.0,0013.21,0002.95,0001.72
2023-11-23 12:48:00,SystemResetWarning,0830.9,5.00,000.00,024.0,023.1,000.0,032.4,025.2,11.6,0000.0,0012.05,0002.96,0001.72
2023-11-23 12:49:00,SystemResetWarning,0830.9,4.99,000.00,024.0,023.1,000.0,032.4,025.2,11.6,0000.0,0011.87,0003.03,0001.71
2023-11-23 12:50:00,SystemResetWarning,0830.9,5.00,000.00,024.0,023.1,000.0,032.4,025.2,11.5,0000.0,0011.89,0003.05,0001.71
2023-11-23 12:51:00,SystemResetWarning,0830.9,5.00,000.00,024.0,023.1,000.0,032.4,025.3,11.6,0000.0,0010.98,0002.91,0001.70
2023-11-23 12:52:00,SystemResetWarning,0831.0,5.00,000.00,024.0,023.1,000.0,032.4,025.3,11.6,0000.0,0010.25,0002.89,0001.70
2023-11-23 12:53:00,SystemResetWarning,0831.1,4.99,000.00,024.0,023.1,000.0,032.4,025.2,11.5,0000.0,0009.04,0002.86,0001.70
2023-11-23 12:54:00,SystemResetWarning,0831.1,5.00,000.00,024.0,023.1,000.0,032.4,025.2,11.6,0000.0,0009.09,0002.84,0001.71
2023-11-23 12:55:00,SystemResetWarning,0831.1,5.00,000.00,024.0,023.1,000.0,032.4,025.2,11.6,0000.0,0009.23,0002.86,0001.69
2023-11-23 12:56:00,SystemResetWarning,0831.1,5.01,000.00,024.0,023.0,000.0,032.3,025.2,11.6,0000.0,0009.29,0002.87,0001.69
2023-11-23 12:57:00,SystemResetWarning,0831.1,5.01,000.00,024.0,023.0,000.0,032.3,025.2,11.6,0000.0,0009.18,0002.86,0001.69
2023-11-23 12:58:00,SystemResetWarning,0831.1,5.00,000.00,024.0,023.0,000.0,032.3,025.2,11.5,0000.0,0008.56,0002.86,0001.70
2023-11-23 12:59:00,SystemResetWarning,0831.1,4.99,000.00,024.0,023.0,000.0,032.3,025.2,11.6,0000.0,0008.75,0002.89,0001.71
